EZS26LA LFSB-DTNH

Flight info

Callsign EZS26LA
Flight time 1h 49m
Altitude 37000
Route OLBEN Z50 GERSA DCT SOSON DCT ODINA DCT BOTAL DCT KALMO DCT ELB DCT VELAD DCT PININ DCT TUNEX UG737 CBN/N0357F230 M738 DIDON G727 ATLEL ATLEL1W
Aircraft A320/M-SDE2E3FGHIJ1RWXYZ/LB1

Departure

Time 2026-04-16 11:54
Airport EuroAirport Basel–Mulhouse–Freiburg (LFSB)

Arrival

Time 2026-04-16 13:43
Airport Enfidha - Hammamet International Airport (DTNH)
Time Latitude Longitude Altitude Speed Heading
2026-04-16 11:15 47.59749 7.52880 890 ft 0 kts 109°
2026-04-16 11:45 47.59750 7.52873 917 ft 2 kts 109°
2026-04-16 11:45 47.59759 7.52852 890 ft 2 kts 112°
2026-04-16 11:45 47.59759 7.52828 890 ft 2 kts 70°
2026-04-16 11:45 47.59753 7.52805 890 ft 2 kts 87°
2026-04-16 11:46 47.59758 7.52783 890 ft 2 kts 145°
2026-04-16 11:47 47.59740 7.52794 890 ft 8 kts 156°
2026-04-16 11:47 47.59678 7.52833 890 ft 9 kts 157°
2026-04-16 11:47 47.59624 7.52842 890 ft 7 kts 214°
2026-04-16 11:47 47.59584 7.52810 890 ft 7 kts 181°
2026-04-16 11:48 47.59532 7.52837 890 ft 9 kts 158°
2026-04-16 11:48 47.59470 7.52881 890 ft 10 kts 154°
2026-04-16 11:48 47.59413 7.52921 890 ft 9 kts 155°
2026-04-16 11:48 47.59363 7.52956 890 ft 7 kts 155°
2026-04-16 11:49 47.59321 7.52985 890 ft 6 kts 155°
2026-04-16 11:49 47.59282 7.53012 890 ft 7 kts 155°
2026-04-16 11:49 47.59235 7.53044 890 ft 10 kts 155°
2026-04-16 11:49 47.59182 7.53156 890 ft 19 kts 89°
2026-04-16 11:50 47.59151 7.53292 890 ft 12 kts 78°
2026-04-16 11:50 47.59163 7.53408 890 ft 10 kts 78°
2026-04-16 11:50 47.59182 7.53527 890 ft 14 kts 77°
2026-04-16 11:50 47.59205 7.53675 890 ft 15 kts 77°
2026-04-16 11:51 47.59229 7.53826 890 ft 16 kts 77°
2026-04-16 11:51 47.59242 7.53904 890 ft 0 kts 78°
2026-04-16 11:52 47.59244 7.53925 890 ft 6 kts 80°
2026-04-16 11:52 47.59234 7.53976 890 ft 4 kts 117°
2026-04-16 11:52 47.59210 7.54036 890 ft 7 kts 122°
2026-04-16 11:52 47.59178 7.54082 890 ft 5 kts 164°
2026-04-16 11:53 47.59166 7.54054 890 ft 3 kts 252°
2026-04-16 11:53 47.59155 7.53996 890 ft 22 kts 256°
2026-04-16 11:53 47.59051 7.53329 891 ft 108 kts 257°
2026-04-16 11:53 47.58835 7.51902 1013 ft 162 kts 259°
2026-04-16 11:54 47.58587 7.50271 1830 ft 165 kts 257°
2026-04-16 11:54 47.58310 7.48577 2322 ft 180 kts 256°
2026-04-16 11:54 47.57858 7.46744 2610 ft 202 kts 231°
2026-04-16 11:54 47.56617 7.45632 2890 ft 225 kts 188°
2026-04-16 11:55 47.55004 7.45948 3286 ft 248 kts 159°
2026-04-16 11:55 47.53356 7.46996 3872 ft 264 kts 152°
2026-04-16 11:55 47.51707 7.48264 4781 ft 267 kts 151°
2026-04-16 11:55 47.50068 7.49543 5685 ft 270 kts 152°
2026-04-16 11:56 47.48387 7.50813 6533 ft 274 kts 153°
2026-04-16 11:56 47.46664 7.52061 7363 ft 278 kts 154°
2026-04-16 11:56 47.44903 7.53292 8175 ft 282 kts 155°
2026-04-16 11:56 47.43110 7.54513 9003 ft 285 kts 156°
2026-04-16 11:57 47.41282 7.55740 9839 ft 289 kts 156°
2026-04-16 11:57 47.39432 7.56970 10572 ft 296 kts 157°
2026-04-16 11:57 47.37485 7.58260 10788 ft 319 kts 157°
2026-04-16 11:57 47.35399 7.59641 11225 ft 334 kts 156°
2026-04-16 11:58 47.33268 7.61054 11870 ft 340 kts 157°
2026-04-16 11:58 47.31088 7.62504 12548 ft 345 kts 156°
2026-04-16 11:58 47.28945 7.64182 13246 ft 351 kts 151°
2026-04-16 11:58 47.26815 7.65974 13946 ft 355 kts 151°
2026-04-16 11:59 47.24664 7.67778 14585 ft 358 kts 151°
2026-04-16 11:59 47.22494 7.69605 15199 ft 362 kts 149°
2026-04-16 11:59 47.20476 7.71865 15794 ft 367 kts 137°
2026-04-16 11:59 47.18808 7.74735 16382 ft 372 kts 124°
2026-04-16 12:00 47.17595 7.78060 16958 ft 377 kts 111°
2026-04-16 12:00 47.16690 7.81702 17543 ft 381 kts 110°
2026-04-16 12:00 47.15773 7.85385 18125 ft 385 kts 110°
2026-04-16 12:00 47.14834 7.89096 18683 ft 390 kts 110°
2026-04-16 12:01 47.13882 7.92843 19184 ft 393 kts 110°
2026-04-16 12:01 47.13133 7.96722 19693 ft 397 kts 103°
2026-04-16 12:01 47.12503 8.00674 20212 ft 400 kts 102°
2026-04-16 12:02 47.11219 8.08694 21243 ft 407 kts 102°
2026-04-16 12:02 47.10561 8.12765 21793 ft 410 kts 102°
2026-04-16 12:02 47.09895 8.16858 22304 ft 414 kts 102°
2026-04-16 12:02 47.09226 8.20968 22815 ft 417 kts 102°
2026-04-16 12:03 47.08549 8.25117 23346 ft 419 kts 102°
2026-04-16 12:03 47.07866 8.29289 23861 ft 422 kts 102°
2026-04-16 12:03 47.07175 8.33494 24283 ft 425 kts 102°
2026-04-16 12:03 47.06483 8.37713 24702 ft 427 kts 102°
2026-04-16 12:04 47.05781 8.41954 25109 ft 430 kts 104°
2026-04-16 12:04 47.04578 8.45965 25483 ft 434 kts 124°
2026-04-16 12:04 47.02543 8.49232 25843 ft 436 kts 141°
2026-04-16 12:04 47.00065 8.51725 26202 ft 438 kts 152°
2026-04-16 12:05 46.97290 8.53534 26544 ft 439 kts 163°
2026-04-16 12:05 46.94313 8.54547 26913 ft 438 kts 175°
2026-04-16 12:05 46.91272 8.55071 27261 ft 441 kts 175°
2026-04-16 12:05 46.88214 8.55545 27565 ft 443 kts 176°
2026-04-16 12:06 46.85136 8.55983 27891 ft 447 kts 176°
2026-04-16 12:06 46.82026 8.56401 28132 ft 451 kts 176°
2026-04-16 12:06 46.78896 8.56819 28381 ft 455 kts 176°
2026-04-16 12:06 46.75728 8.57250 28652 ft 458 kts 176°
2026-04-16 12:07 46.72532 8.57698 28879 ft 463 kts 176°
2026-04-16 12:07 46.69314 8.58158 29008 ft 468 kts 176°
2026-04-16 12:07 46.66043 8.58632 29152 ft 473 kts 176°
2026-04-16 12:07 46.62750 8.59109 29274 ft 478 kts 175°
2026-04-16 12:08 46.59437 8.59587 29405 ft 482 kts 176°
2026-04-16 12:08 46.56092 8.60062 29543 ft 485 kts 176°
2026-04-16 12:08 46.52726 8.60539 29680 ft 486 kts 176°
2026-04-16 12:08 46.49343 8.61022 29882 ft 487 kts 176°
2026-04-16 12:09 46.45990 8.61510 30261 ft 460 kts 175°
2026-04-16 12:09 46.43016 8.61971 32537 ft 411 kts 176°
2026-04-16 12:09 46.40178 8.62412 33142 ft 410 kts 176°
2026-04-16 12:09 46.37329 8.62812 33422 ft 412 kts 176°
2026-04-16 12:10 46.34457 8.63187 33689 ft 416 kts 176°
2026-04-16 12:10 46.31568 8.63556 33953 ft 418 kts 176°
2026-04-16 12:10 46.28722 8.63930 34210 ft 419 kts 176°
2026-04-16 12:10 46.25807 8.64326 34448 ft 420 kts 176°
2026-04-16 12:11 46.22896 8.64732 34673 ft 421 kts 176°
2026-04-16 12:11 46.19973 8.65146 34911 ft 421 kts 176°
2026-04-16 12:11 46.17054 8.65560 35155 ft 422 kts 176°
2026-04-16 12:11 46.14134 8.65973 35400 ft 422 kts 176°
2026-04-16 12:12 46.11213 8.66474 35626 ft 424 kts 171°
2026-04-16 12:12 46.08335 8.67482 35752 ft 427 kts 162°
2026-04-16 12:12 46.05503 8.68854 35878 ft 430 kts 162°
2026-04-16 12:12 46.02654 8.70232 35987 ft 433 kts 162°
2026-04-16 12:13 45.99782 8.71612 36119 ft 435 kts 162°
2026-04-16 12:13 45.96898 8.72988 36259 ft 438 kts 163°
2026-04-16 12:13 45.93996 8.74367 36389 ft 440 kts 163°
2026-04-16 12:13 45.91116 8.75737 36520 ft 443 kts 163°
2026-04-16 12:14 45.88176 8.77135 36653 ft 446 kts 163°
2026-04-16 12:14 45.85229 8.78536 36783 ft 447 kts 163°
2026-04-16 12:14 45.82267 8.79942 36902 ft 449 kts 163°
2026-04-16 12:14 45.79300 8.81348 37070 ft 450 kts 163°
2026-04-16 12:15 45.73314 8.84187 37129 ft 456 kts 163°
2026-04-16 12:15 45.67273 8.87046 37144 ft 458 kts 163°
2026-04-16 12:16 45.61219 8.89902 37128 ft 458 kts 163°
2026-04-16 12:16 45.55206 8.92738 37139 ft 458 kts 163°
2026-04-16 12:17 45.49150 8.95585 37138 ft 458 kts 163°
2026-04-16 12:17 45.43092 8.98425 37160 ft 457 kts 163°
2026-04-16 12:18 45.37061 9.01244 37163 ft 456 kts 163°
2026-04-16 12:18 45.31031 9.04061 37166 ft 455 kts 163°
2026-04-16 12:19 45.25022 9.06863 37180 ft 454 kts 163°
2026-04-16 12:19 45.19025 9.09652 37173 ft 453 kts 163°
2026-04-16 12:20 45.13031 9.12434 37174 ft 453 kts 162°
2026-04-16 12:20 45.07158 9.15649 37173 ft 454 kts 158°
2026-04-16 12:21 45.01372 9.19215 37160 ft 453 kts 157°
2026-04-16 12:21 44.95628 9.22734 37167 ft 452 kts 158°
2026-04-16 12:22 44.89832 9.26136 37171 ft 451 kts 159°
2026-04-16 12:22 44.84017 9.29492 37167 ft 450 kts 159°
2026-04-16 12:23 44.79192 9.32279 37166 ft 449 kts 159°
2026-04-16 12:23 44.72472 9.36187 37163 ft 448 kts 159°
2026-04-16 12:24 44.66708 9.39542 37157 ft 448 kts 159°
2026-04-16 12:24 44.61910 9.42318 37158 ft 448 kts 159°
2026-04-16 12:25 44.56150 9.45638 37152 ft 447 kts 159°
2026-04-16 12:25 44.50400 9.48946 37158 ft 446 kts 159°
2026-04-16 12:26 44.44666 9.52241 37159 ft 445 kts 159°
2026-04-16 12:26 44.38942 9.55530 37156 ft 444 kts 159°
2026-04-16 12:27 44.33223 9.58806 37146 ft 444 kts 159°
2026-04-16 12:27 44.27516 9.61942 37141 ft 443 kts 161°
2026-04-16 12:28 44.21734 9.64882 37132 ft 443 kts 161°
2026-04-16 12:28 44.15940 9.67797 37122 ft 442 kts 161°
2026-04-16 12:29 44.10142 9.70765 37120 ft 442 kts 161°
2026-04-16 12:29 44.04371 9.73739 37119 ft 442 kts 161°
2026-04-16 12:30 43.98599 9.76697 37116 ft 442 kts 161°
2026-04-16 12:30 43.92866 9.79632 37116 ft 442 kts 161°
2026-04-16 12:31 43.87107 9.82575 37119 ft 442 kts 161°
2026-04-16 12:31 43.81336 9.85528 37118 ft 441 kts 161°
2026-04-16 12:32 43.75561 9.88461 37115 ft 442 kts 161°
2026-04-16 12:32 43.69784 9.91381 37113 ft 442 kts 161°
2026-04-16 12:33 43.64011 9.94304 37112 ft 442 kts 160°
2026-04-16 12:33 43.58286 9.97197 37107 ft 442 kts 160°
2026-04-16 12:34 43.52499 10.00116 37100 ft 442 kts 160°
2026-04-16 12:34 43.46707 10.03029 37095 ft 443 kts 160°
2026-04-16 12:35 43.40917 10.05937 37095 ft 443 kts 160°
2026-04-16 12:35 43.35124 10.08837 37093 ft 443 kts 160°
2026-04-16 12:36 43.29328 10.11740 37094 ft 443 kts 160°
2026-04-16 12:36 43.23529 10.14642 37093 ft 444 kts 160°
2026-04-16 12:37 43.17723 10.17527 37094 ft 444 kts 160°
2026-04-16 12:37 43.11932 10.20397 37094 ft 444 kts 160°
2026-04-16 12:38 43.06102 10.23298 37091 ft 445 kts 159°
2026-04-16 12:38 43.00265 10.26191 37094 ft 446 kts 159°
2026-04-16 12:39 42.94462 10.29048 37093 ft 447 kts 159°
2026-04-16 12:39 42.88599 10.31935 37092 ft 447 kts 159°
2026-04-16 12:40 42.82751 10.34814 37091 ft 448 kts 159°
2026-04-16 12:40 42.76888 10.37688 37095 ft 448 kts 159°
2026-04-16 12:41 42.71027 10.40596 37093 ft 448 kts 158°
2026-04-16 12:41 42.65229 10.43740 37093 ft 449 kts 156°
2026-04-16 12:42 42.59443 10.46996 37089 ft 449 kts 156°
2026-04-16 12:42 42.53683 10.50184 37103 ft 450 kts 156°
2026-04-16 12:43 42.47866 10.53341 37092 ft 451 kts 156°
2026-04-16 12:43 42.42033 10.56487 37093 ft 452 kts 156°
2026-04-16 12:44 42.36187 10.59647 37089 ft 452 kts 156°
2026-04-16 12:44 42.30333 10.62812 37096 ft 453 kts 156°
2026-04-16 12:45 42.24480 10.65977 37099 ft 453 kts 156°
2026-04-16 12:45 42.18655 10.69123 37100 ft 454 kts 156°
2026-04-16 12:46 42.12790 10.72271 37101 ft 454 kts 156°
2026-04-16 12:46 42.06906 10.75398 37097 ft 455 kts 159°
2026-04-16 12:47 42.00687 10.77084 37089 ft 459 kts 171°
2026-04-16 12:47 41.94330 10.78108 37094 ft 460 kts 171°
2026-04-16 12:48 41.87973 10.79144 37100 ft 461 kts 171°
2026-04-16 12:48 41.81603 10.80180 37096 ft 461 kts 171°
2026-04-16 12:49 41.75223 10.81210 37097 ft 462 kts 171°
2026-04-16 12:49 41.68857 10.82233 37097 ft 462 kts 171°
2026-04-16 12:50 41.62456 10.83266 37098 ft 463 kts 171°
2026-04-16 12:50 41.56083 10.84286 37095 ft 464 kts 171°
2026-04-16 12:51 41.49665 10.85312 37097 ft 465 kts 171°
2026-04-16 12:51 41.43234 10.86345 37100 ft 465 kts 171°
2026-04-16 12:52 41.36801 10.87376 37098 ft 466 kts 171°
2026-04-16 12:52 41.30352 10.88396 37099 ft 466 kts 171°
2026-04-16 12:53 41.23903 10.89418 37109 ft 467 kts 171°
2026-04-16 12:53 41.17445 10.90445 37102 ft 468 kts 171°
2026-04-16 12:54 41.11025 10.91459 37105 ft 468 kts 171°
2026-04-16 12:54 41.04560 10.92474 37105 ft 468 kts 171°
2026-04-16 12:55 40.98084 10.93499 37107 ft 468 kts 171°
2026-04-16 12:55 40.91610 10.94518 37105 ft 469 kts 171°
2026-04-16 12:56 40.85126 10.95535 37109 ft 469 kts 171°
2026-04-16 12:56 40.78682 10.96543 37122 ft 469 kts 171°
2026-04-16 12:57 40.72194 10.97572 37118 ft 469 kts 171°
2026-04-16 12:57 40.65716 10.98582 37119 ft 469 kts 171°
2026-04-16 12:58 40.59231 10.99582 37125 ft 469 kts 171°
2026-04-16 12:58 40.52762 11.00589 37124 ft 469 kts 171°
2026-04-16 12:59 40.46322 11.01584 37118 ft 469 kts 171°
2026-04-16 13:00 40.36599 11.03092 37126 ft 469 kts 171°
2026-04-16 13:00 40.30115 11.04091 37124 ft 468 kts 171°
2026-04-16 13:01 40.23635 11.05087 37123 ft 468 kts 171°
2026-04-16 13:01 40.17163 11.06085 37123 ft 468 kts 171°
2026-04-16 13:02 40.10693 11.07084 37117 ft 468 kts 171°
2026-04-16 13:02 40.04265 11.08065 37116 ft 468 kts 171°
2026-04-16 13:03 39.97739 11.09061 37117 ft 468 kts 171°
2026-04-16 13:03 39.91316 11.10043 37122 ft 468 kts 171°
2026-04-16 13:04 39.84829 11.11033 37116 ft 468 kts 171°
2026-04-16 13:04 39.78338 11.12016 37115 ft 468 kts 171°
2026-04-16 13:05 39.71876 11.12995 37112 ft 468 kts 171°
2026-04-16 13:05 39.65402 11.13978 37119 ft 468 kts 171°
2026-04-16 13:06 39.58929 11.14966 37114 ft 468 kts 171°
2026-04-16 13:06 39.52493 11.15942 37111 ft 468 kts 172°
2026-04-16 13:07 39.46023 11.16907 37122 ft 468 kts 172°
2026-04-16 13:07 39.39533 11.17873 37121 ft 468 kts 172°
2026-04-16 13:08 39.33061 11.18847 37113 ft 468 kts 172°
2026-04-16 13:08 39.26593 11.19827 37112 ft 468 kts 172°
2026-04-16 13:09 39.20124 11.20791 37111 ft 468 kts 172°
2026-04-16 13:09 39.13653 11.21762 37111 ft 468 kts 172°
2026-04-16 13:10 39.07213 11.22712 37112 ft 468 kts 172°
2026-04-16 13:10 39.00728 11.23675 37121 ft 469 kts 172°
2026-04-16 13:11 38.94241 11.24639 37114 ft 469 kts 172°
2026-04-16 13:11 38.87761 11.25604 37112 ft 469 kts 172°
2026-04-16 13:12 38.81280 11.26565 37114 ft 469 kts 172°
2026-04-16 13:12 38.74786 11.27523 37109 ft 469 kts 172°
2026-04-16 13:13 38.68303 11.28475 37108 ft 469 kts 172°
2026-04-16 13:13 38.61864 11.29411 37106 ft 469 kts 172°
2026-04-16 13:14 38.55370 11.30365 37123 ft 469 kts 172°
2026-04-16 13:14 38.48894 11.31325 37116 ft 468 kts 172°
2026-04-16 13:15 38.42423 11.32271 37108 ft 467 kts 172°
2026-04-16 13:15 38.37044 11.33050 37108 ft 467 kts 172°
2026-04-16 13:16 38.30593 11.33992 37113 ft 466 kts 173°
2026-04-16 13:16 38.24140 11.34930 37107 ft 466 kts 173°
2026-04-16 13:17 38.17698 11.35870 37103 ft 466 kts 173°
2026-04-16 13:17 38.11258 11.36800 37102 ft 466 kts 173°
2026-04-16 13:18 38.04824 11.37725 37098 ft 466 kts 173°
2026-04-16 13:18 37.98370 11.38656 37096 ft 466 kts 173°
2026-04-16 13:19 37.91944 11.38920 37091 ft 466 kts 187°
2026-04-16 13:19 37.85606 11.37235 37092 ft 466 kts 194°
2026-04-16 13:20 37.79304 11.35358 37093 ft 466 kts 193°
2026-04-16 13:20 37.72973 11.33494 37093 ft 466 kts 194°
2026-04-16 13:21 37.66661 11.31619 37095 ft 466 kts 194°
2026-04-16 13:21 37.60347 11.29733 37073 ft 466 kts 194°
2026-04-16 13:21 37.57184 11.28794 36964 ft 469 kts 194°
2026-04-16 13:22 37.54014 11.27855 36701 ft 469 kts 194°
2026-04-16 13:22 37.50834 11.26913 36451 ft 470 kts 194°
2026-04-16 13:22 37.47651 11.25968 36200 ft 470 kts 194°
2026-04-16 13:22 37.44453 11.25020 35951 ft 470 kts 194°
2026-04-16 13:23 37.41267 11.24078 35704 ft 469 kts 194°
2026-04-16 13:23 37.38131 11.23151 35249 ft 469 kts 194°
2026-04-16 13:23 37.34904 11.22195 34066 ft 483 kts 193°
2026-04-16 13:23 37.31618 11.21223 33056 ft 487 kts 193°
2026-04-16 13:24 37.28348 11.20261 32782 ft 475 kts 193°
2026-04-16 13:24 37.25155 11.19321 32259 ft 469 kts 193°
2026-04-16 13:24 37.21983 11.18390 31493 ft 469 kts 193°
2026-04-16 13:24 37.18808 11.17459 30868 ft 468 kts 192°
2026-04-16 13:25 37.15634 11.16529 30160 ft 469 kts 192°
2026-04-16 13:25 37.12461 11.15598 29418 ft 465 kts 192°
2026-04-16 13:25 37.09310 11.14675 28739 ft 460 kts 192°
2026-04-16 13:25 37.06207 11.13770 28105 ft 455 kts 192°
2026-04-16 13:26 37.03139 11.12877 27473 ft 451 kts 192°
2026-04-16 13:26 37.00100 11.11988 26890 ft 446 kts 192°
2026-04-16 13:26 36.97092 11.11104 26305 ft 441 kts 192°
2026-04-16 13:26 36.94115 11.10227 25728 ft 438 kts 192°
2026-04-16 13:27 36.91160 11.09362 25130 ft 435 kts 192°
2026-04-16 13:27 36.88225 11.08506 24573 ft 431 kts 192°
2026-04-16 13:27 36.85356 11.07643 24035 ft 428 kts 192°
2026-04-16 13:27 36.82468 11.06757 23483 ft 425 kts 193°
2026-04-16 13:28 36.79611 11.05869 22897 ft 421 kts 193°
2026-04-16 13:28 36.76774 11.04990 22349 ft 417 kts 192°
2026-04-16 13:28 36.73964 11.04124 21807 ft 415 kts 192°
2026-04-16 13:28 36.71166 11.03267 21282 ft 412 kts 192°
2026-04-16 13:29 36.68391 11.02420 20799 ft 408 kts 192°
2026-04-16 13:29 36.65637 11.01590 20308 ft 405 kts 192°
2026-04-16 13:29 36.62912 11.00773 19821 ft 402 kts 192°
2026-04-16 13:29 36.60194 10.99962 19323 ft 400 kts 192°
2026-04-16 13:30 36.57532 10.99166 18861 ft 397 kts 192°
2026-04-16 13:30 36.54855 10.98365 18399 ft 394 kts 192°
2026-04-16 13:30 36.52198 10.97569 17872 ft 391 kts 192°
2026-04-16 13:30 36.49560 10.96779 17330 ft 389 kts 192°
2026-04-16 13:31 36.46952 10.95914 16824 ft 387 kts 200°
2026-04-16 13:31 36.44568 10.94393 16342 ft 385 kts 210°
2026-04-16 13:31 36.42278 10.92702 15835 ft 383 kts 211°
2026-04-16 13:31 36.39996 10.91003 15357 ft 381 kts 211°
2026-04-16 13:32 36.37728 10.89310 14875 ft 379 kts 211°
2026-04-16 13:32 36.35474 10.87623 14411 ft 377 kts 211°
2026-04-16 13:32 36.33231 10.85945 13965 ft 375 kts 211°
2026-04-16 13:32 36.31002 10.84274 13465 ft 373 kts 212°
2026-04-16 13:33 36.28786 10.82617 12966 ft 371 kts 211°
2026-04-16 13:33 36.26584 10.80975 12489 ft 368 kts 211°
2026-04-16 13:33 36.24399 10.79349 11995 ft 365 kts 211°
2026-04-16 13:33 36.22227 10.77735 11496 ft 363 kts 211°
2026-04-16 13:34 36.20069 10.76134 11010 ft 360 kts 211°
2026-04-16 13:34 36.17924 10.74542 10543 ft 357 kts 211°
2026-04-16 13:34 36.15805 10.72968 10065 ft 355 kts 211°
2026-04-16 13:34 36.13694 10.71401 9558 ft 352 kts 211°
2026-04-16 13:35 36.11609 10.69814 9039 ft 350 kts 216°
2026-04-16 13:35 36.09916 10.67724 8442 ft 340 kts 233°
2026-04-16 13:35 36.08598 10.65317 7515 ft 336 kts 242°
2026-04-16 13:35 36.07587 10.62765 6960 ft 319 kts 256°
2026-04-16 13:36 36.07370 10.60207 6832 ft 284 kts 282°
2026-04-16 13:36 36.08005 10.58067 6636 ft 253 kts 310°
2026-04-16 13:36 36.09261 10.56704 6142 ft 235 kts 340°
2026-04-16 13:36 36.10793 10.56379 5597 ft 225 kts
2026-04-16 13:37 36.12200 10.57142 4991 ft 225 kts 40°
2026-04-16 13:37 36.13033 10.58764 4375 ft 229 kts 72°
2026-04-16 13:37 36.13157 10.60752 3755 ft 235 kts 86°
2026-04-16 13:37 36.13082 10.62771 3170 ft 234 kts 88°
2026-04-16 13:38 36.12968 10.64776 3009 ft 235 kts 90°
2026-04-16 13:38 36.12471 10.66727 3003 ft 247 kts 119°
2026-04-16 13:38 36.11204 10.68214 3009 ft 258 kts 147°
2026-04-16 13:38 36.09519 10.68840 3002 ft 255 kts 177°
2026-04-16 13:39 36.07786 10.68458 3002 ft 255 kts 206°
2026-04-16 13:39 36.06388 10.67164 3004 ft 250 kts 235°
2026-04-16 13:39 36.05626 10.65317 3005 ft 233 kts 263°
2026-04-16 13:39 36.05565 10.63382 2976 ft 222 kts 290°
2026-04-16 13:40 36.06226 10.61713 2602 ft 215 kts 307°
2026-04-16 13:40 36.06978 10.60120 2314 ft 213 kts 302°
2026-04-16 13:40 36.07393 10.58375 2047 ft 209 kts 284°
2026-04-16 13:40 36.07491 10.56621 1769 ft 200 kts 279°
2026-04-16 13:41 36.07511 10.54948 1547 ft 189 kts 278°
2026-04-16 13:41 36.07520 10.53372 1266 ft 177 kts 279°
2026-04-16 13:41 36.07526 10.51925 1048 ft 160 kts 276°
2026-04-16 13:41 36.07534 10.50599 835 ft 150 kts 277°
2026-04-16 13:42 36.07542 10.49345 643 ft 144 kts 278°
2026-04-16 13:42 36.07550 10.48120 456 ft 141 kts 278°
2026-04-16 13:42 36.07556 10.46925 273 ft 136 kts 278°
2026-04-16 13:42 36.07566 10.45773 110 ft 132 kts 278°
2026-04-16 13:43 36.07565 10.44684 34 ft 117 kts 279°
2026-04-16 13:43 36.07576 10.43872 29 ft 70 kts 271°
2026-04-16 13:43 36.07596 10.43533 31 ft 26 kts 284°
2026-04-16 13:43 36.07670 10.43342 28 ft 23 kts 300°
2026-04-16 13:44 36.07725 10.43230 28 ft 15 kts 308°
2026-04-16 13:44 36.07829 10.43196 25 ft 17 kts
2026-04-16 13:44 36.07951 10.43192 25 ft 18 kts 358°
2026-04-16 13:44 36.08045 10.43254 26 ft 18 kts 94°
2026-04-16 13:45 36.08046 10.43401 22 ft 17 kts 88°
2026-04-16 13:45 36.08046 10.43536 23 ft 15 kts 91°
2026-04-16 13:45 36.08046 10.43650 24 ft 12 kts 84°
2026-04-16 13:45 36.08113 10.43693 21 ft 14 kts
2026-04-16 13:46 36.08185 10.43761 16 ft 5 kts 42°